{"data":{"norad_id":51810,"intl_designator":"2022-017AU","name":"STARLINK-3613","alt_names":[],"object_type":"PAYLOAD","status":"ACTIVE","operator":null,"country":"US","launch_date":"2022-02-25","launch_site_code":"AFWTR","launch_vehicle":null,"mission":null,"orbit_class":"UNKNOWN","rcs_meters":null,"size_class":null,"mass_kg":null,"dimensions":null,"purposes":["comms"],"wikipedia_slug":null,"has_3d_model":false,"image_url":null,"decayed_at":null,"tle_current":{"epoch":"2026-09-19T05:22:36.050304Z","epoch_age_seconds":162506,"freshness":"FRESH","line1":"1 51810U 22017AU  26262.22402836  .00001306  00000+0  49777-4 0  9999","line2":"2 51810  53.1613 169.3739 0001214  83.2338 276.8802 15.34392715253440","mean_motion":15.34392715,"eccentricity":0.0001214,"inclination_deg":53.1613,"raan_deg":169.3739,"arg_perigee_deg":83.2338,"mean_anomaly_deg":276.8802,"bstar":4.9777e-5,"rev_number":25344,"period_min":93.848203652349,"perigee_km":461.89441221423,"apogee_km":463.55537348181,"semimajor_km":6840.861892848,"source":"CELESTRAK","updated_at":"2026-09-20T09:00:39.943168Z"}}}